,,,PA_Meas_PMT16A,,PR_Meas_QMR101_102,,RH_Meas_QMH101,,SR_Meas_QMS101,,TA_Meas_QMH101,,GenWind,,GenWind,
date,time,status,PA,status,PR,status,RH,status,SR,status,TA,status,DirAvg,status,SpdAvg,
2011-08-28, 00:00:04,VALID,1010.14,VALID,0.0,VALID,92.592,VALID,0.0,VALID,25.565,VALID,172.0,VALID,0.632,
2011-08-28, 00:01:04,VALID,1010.161,VALID,0.0,VALID,92.348,VALID,0.0,VALID,25.546,VALID,166.0,VALID,0.827,
2011-08-28, 00:02:04,VALID,1010.136,VALID,0.0,VALID,92.798,VALID,0.0,VALID,25.507,VALID,171.0,VALID,0.508,
2011-08-28, 00:03:04,VALID,1010.131,VALID,0.0,VALID,93.156,VALID,0.0,VALID,25.487,VALID,171.0,VALID,0.273,
2011-08-28, 00:04:04,VALID,1010.139,VALID,0.0,VALID,93.415,VALID,0.0,VALID,25.468,VALID,171.0,VALID,0.333,
2011-08-28, 00:05:04,VALID,1010.13,VALID,0.0,VALID,93.606,VALID,0.0,VALID,25.468,VALID,171.0,VALID,0.256,
2011-08-28, 00:06:04,VALID,1010.14,VALID,0.0,VALID,93.698,VALID,0.0,VALID,25.47,VALID,171.0,VALID,0.32,
2011-08-28, 00:07:04,VALID,1010.141,VALID,0.0,VALID,93.804,VALID,0.0,VALID,25.429,VALID,211.0,VALID,0.188,
2011-08-28, 00:08:04,VALID,1010.108,VALID,0.0,VALID,93.919,VALID,0.0,VALID,25.409,VALID,211.0,VALID,0.302,
2011-08-28, 00:09:04,VALID,1010.136,VALID,0.0,VALID,94.277,VALID,0.0,VALID,25.409,VALID,195.0,VALID,0.47,
2011-08-28, 00:10:04,VALID,1010.172,VALID,0.0,VALID,94.277,VALID,0.0,VALID,25.39,VALID,195.0,VALID,0.203,
2011-08-28, 00:11:04,VALID,1010.164,VALID,0.0,VALID,94.483,VALID,0.0,VALID,25.37,VALID,195.0,VALID,0.426,
2011-08-28, 00:12:04,VALID,1010.142,VALID,0.0,VALID,94.811,VALID,0.0,VALID,25.351,VALID,195.0,VALID,0.188,
2011-08-28, 00:13:04,VALID,1010.155,VALID,0.0,VALID,95.047,VALID,0.0,VALID,25.331,VALID,195.0,VALID,0.26,
2011-08-28, 00:14:04,VALID,1010.133,VALID,0.0,VALID,95.269,VALID,0.0,VALID,25.331,VALID,195.0,VALID,0.075,
2011-08-28, 00:15:04,VALID,1010.162,VALID,0.0,VALID,95.391,VALID,0.0,VALID,25.292,VALID,195.0,VALID,0.524,
2011-08-28, 00:16:04,VALID,1010.158,VALID,0.0,VALID,95.825,VALID,0.0,VALID,25.273,VALID,195.0,VALID,0.238,
2011-08-28, 00:17:04,VALID,1010.174,VALID,0.0,VALID,96.1,VALID,0.0,VALID,25.234,VALID,195.0,VALID,0.154,
2011-08-28, 00:18:04,VALID,1010.18,VALID,0.0,VALID,96.207,VALID,0.0,VALID,25.175,VALID,195.0,VALID,0.018,
2011-08-28, 00:19:04,VALID,1010.167,VALID,0.0,VALID,96.42,VALID,0.0,VALID,25.117,VALID,195.0,VALID,0.068,
2011-08-28, 00:20:04,VALID,1010.138,VALID,0.0,VALID,97.129,VALID,0.0,VALID,25.078,VALID,195.0,VALID,0.0,
2011-08-28, 00:21:04,VALID,1010.128,VALID,0.0,VALID,97.404,VALID,0.0,VALID,25.019,VALID,195.0,VALID,0.251,
2011-08-28, 00:22:04,VALID,1010.099,VALID,0.0,VALID,97.579,VALID,0.0,VALID,24.941,VALID,195.0,VALID,0.169,
2011-08-28, 00:23:04,VALID,1010.072,VALID,0.0,VALID,98.258,VALID,0.0,VALID,24.885,VALID,195.0,VALID,0.099,
2011-08-28, 00:24:04,VALID,1010.018,VALID,0.0,VALID,98.86,VALID,0.0,VALID,24.824,VALID,195.0,VALID,0.0,
2011-08-28, 00:25:04,VALID,1010.005,VALID,0.0,VALID,99.341,VALID,0.0,VALID,24.807,VALID,195.0,VALID,0.0,
2011-08-28, 00:26:04,VALID,1009.987,VALID,0.0,VALID,99.844,VALID,0.0,VALID,24.787,VALID,195.0,VALID,0.004,
2011-08-28, 00:27:04,VALID,1009.992,VALID,0.0,VALID,100.263,VALID,0.0,VALID,24.766,VALID,190.0,VALID,0.475,
2011-08-28, 00:28:04,VALID,1009.972,VALID,0.0,VALID,100.591,VALID,0.0,VALID,24.805,VALID,167.0,VALID,0.095,
2011-08-28, 00:29:04,VALID,1009.97,VALID,0.0,VALID,100.668,VALID,0.0,VALID,24.785,VALID,167.0,VALID,0.431,
2011-08-28, 00:30:04,VALID,1009.957,VALID,0.0,VALID,100.782,VALID,0.0,VALID,24.805,VALID,167.0,VALID,0.204,
2011-08-28, 00:31:04,VALID,1009.954,VALID,0.0,VALID,100.79,VALID,0.0,VALID,24.805,VALID,167.0,VALID,0.217,
2011-08-28, 00:32:04,VALID,1009.936,VALID,0.0,VALID,100.751,VALID,0.0,VALID,24.785,VALID,167.0,VALID,0.0,
2011-08-28, 00:33:04,VALID,1009.925,VALID,0.0,VALID,100.744,VALID,0.0,VALID,24.785,VALID,167.0,VALID,0.0,
2011-08-28, 00:34:04,VALID,1009.898,VALID,0.0,VALID,100.721,VALID,0.0,VALID,24.766,VALID,167.0,VALID,0.0,
2011-08-28, 00:35:04,VALID,1009.903,VALID,0.0,VALID,100.713,VALID,0.0,VALID,24.746,VALID,167.0,VALID,0.0,
2011-08-28, 00:36:04,VALID,1009.888,VALID,0.0,VALID,100.828,VALID,0.0,VALID,24.707,VALID,167.0,VALID,0.0,
2011-08-28, 00:37:04,VALID,1009.853,VALID,0.0,VALID,100.957,VALID,0.0,VALID,24.707,VALID,167.0,VALID,0.0,
2011-08-28, 00:38:04,VALID,1009.848,VALID,0.0,VALID,101.194,VALID,0.0,VALID,24.668,VALID,167.0,VALID,0.0,
2011-08-28, 00:39:04,VALID,1009.848,VALID,0.0,VALID,101.369,VALID,0.0,VALID,24.668,VALID,167.0,VALID,0.196,
2011-08-28, 00:40:04,VALID,1009.85,VALID,0.0,VALID,101.354,VALID,0.0,VALID,24.649,VALID,167.0,VALID,0.286,
2011-08-28, 00:41:04,VALID,1009.835,VALID,0.0,VALID,101.484,VALID,0.0,VALID,24.589,VALID,167.0,VALID,0.386,
2011-08-28, 00:42:04,VALID,1009.882,VALID,0.0,VALID,101.56,VALID,0.0,VALID,24.571,VALID,167.0,VALID,0.15,
2011-08-28, 00:43:04,VALID,1009.84,VALID,0.0,VALID,101.545,VALID,0.0,VALID,24.512,VALID,167.0,VALID,0.384,
2011-08-28, 00:44:04,VALID,1009.837,VALID,0.0,VALID,101.842,VALID,0.0,VALID,24.472,VALID,167.0,VALID,0.388,
2011-08-28, 00:45:04,VALID,1009.819,VALID,0.0,VALID,102.17,VALID,0.0,VALID,24.493,VALID,167.0,VALID,0.313,
2011-08-28, 00:46:04,VALID,1009.816,VALID,0.0,VALID,102.246,VALID,0.0,VALID,24.474,VALID,167.0,VALID,0.173,
2011-08-28, 00:47:04,VALID,1009.819,VALID,0.0,VALID,102.17,VALID,0.0,VALID,24.415,VALID,167.0,VALID,0.0,
2011-08-28, 00:48:04,VALID,1009.783,VALID,0.0,VALID,102.269,VALID,0.0,VALID,24.396,VALID,167.0,VALID,0.112,
2011-08-28, 00:49:04,VALID,1009.767,VALID,0.0,VALID,102.429,VALID,0.0,VALID,24.337,VALID,167.0,VALID,0.332,
2011-08-28, 00:50:04,VALID,1009.741,VALID,0.0,VALID,102.589,VALID,0.0,VALID,24.318,VALID,167.0,VALID,0.246,
2011-08-28, 00:51:04,VALID,1009.754,VALID,0.0,VALID,102.757,VALID,0.0,VALID,24.298,VALID,167.0,VALID,0.0,
2011-08-28, 00:52:04,VALID,1009.721,VALID,0.0,VALID,102.993,VALID,0.0,VALID,24.298,VALID,167.0,VALID,0.232,
2011-08-28, 00:53:04,VALID,1009.738,VALID,0.0,VALID,103.115,VALID,0.0,VALID,24.279,VALID,167.0,VALID,0.291,
2011-08-28, 00:54:04,VALID,1009.706,VALID,0.0,VALID,103.199,VALID,0.0,VALID,24.259,VALID,167.0,VALID,0.323,
2011-08-28, 00:55:04,VALID,1009.721,VALID,0.0,VALID,103.291,VALID,0.0,VALID,24.259,VALID,167.0,VALID,0.322,
2011-08-28, 00:56:04,VALID,1009.721,VALID,0.0,VALID,103.306,VALID,0.0,VALID,24.22,VALID,167.0,VALID,0.0,
2011-08-28, 00:57:04,VALID,1009.712,VALID,0.0,VALID,103.329,VALID,0.0,VALID,24.201,VALID,167.0,VALID,0.0,
2011-08-28, 00:58:04,VALID,1009.698,VALID,0.0,VALID,103.428,VALID,0.0,VALID,24.181,VALID,167.0,VALID,0.098,
2011-08-28, 00:59:04,VALID,1009.672,VALID,0.0,VALID,103.512,VALID,0.0,VALID,24.181,VALID,167.0,VALID,0.311,
2011-08-28, 01:00:04,VALID,1009.68,VALID,0.0,VALID,103.619,VALID,0.0,VALID,24.162,VALID,167.0,VALID,0.286,
2011-08-28, 01:01:04,VALID,1009.698,VALID,0.0,VALID,103.649,VALID,0.0,VALID,24.123,VALID,167.0,VALID,0.182,
2011-08-28, 01:02:04,VALID,1009.677,VALID,0.0,VALID,103.619,VALID,0.0,VALID,24.103,VALID,167.0,VALID,0.251,
2011-08-28, 01:03:04,VALID,1009.681,VALID,0.0,VALID,103.626,VALID,0.0,VALID,24.064,VALID,167.0,VALID,0.191,
2011-08-28, 01:04:04,VALID,1009.672,VALID,0.0,VALID,103.703,VALID,0.0,VALID,24.045,VALID,167.0,VALID,0.204,
2011-08-28, 01:05:04,VALID,1009.66,VALID,0.0,VALID,103.855,VALID,0.0,VALID,24.025,VALID,167.0,VALID,0.492,
2011-08-28, 01:06:04,VALID,1009.666,VALID,0.0,VALID,103.962,VALID,0.0,VALID,24.025,VALID,167.0,VALID,0.0,
2011-08-28, 01:07:04,VALID,1009.647,VALID,0.0,VALID,103.954,VALID,0.0,VALID,23.986,VALID,167.0,VALID,0.129,
2011-08-28, 01:08:04,VALID,1009.623,VALID,0.0,VALID,103.977,VALID,0.0,VALID,23.967,VALID,167.0,VALID,0.0,
2011-08-28, 01:09:04,VALID,1009.602,VALID,0.0,VALID,104.0,VALID,0.0,VALID,23.967,VALID,167.0,VALID,0.233,
2011-08-28, 01:10:04,VALID,1009.559,VALID,0.0,VALID,104.0,VALID,0.0,VALID,24.006,VALID,167.0,VALID,0.707,
2011-08-28, 01:11:04,VALID,1009.565,VALID,0.0,VALID,104.0,VALID,0.0,VALID,23.986,VALID,167.0,VALID,0.5,
2011-08-28, 01:12:04,VALID,1009.588,VALID,0.0,VALID,104.0,VALID,0.0,VALID,23.967,VALID,167.0,VALID,0.038,
2011-08-28, 01:13:04,VALID,1009.568,VALID,0.0,VALID,104.0,VALID,0.0,VALID,23.868,VALID,167.0,VALID,0.38,
2011-08-28, 01:14:04,VALID,1009.55,VALID,0.0,VALID,104.0,VALID,0.0,VALID,23.889,VALID,167.0,VALID,0.163,
2011-08-28, 01:15:04,VALID,1009.519,VALID,0.0,VALID,104.0,VALID,0.0,VALID,23.889,VALID,167.0,VALID,0.129,
2011-08-28, 01:16:04,VALID,1009.477,VALID,0.0,VALID,104.0,VALID,0.0,VALID,23.889,VALID,167.0,VALID,0.429,
2011-08-28, 01:17:04,VALID,1009.451,VALID,0.0,VALID,104.0,VALID,0.0,VALID,23.869,VALID,167.0,VALID,0.417,
2011-08-28, 01:18:04,VALID,1009.408,VALID,0.0,VALID,104.0,VALID,0.0,VALID,23.829,VALID,167.0,VALID,0.08,
2011-08-28, 01:19:04,VALID,1009.378,VALID,0.0,VALID,104.0,VALID,0.0,VALID,23.83,VALID,167.0,VALID,0.0,
2011-08-28, 01:20:04,VALID,1009.402,VALID,0.0,VALID,104.0,VALID,0.0,VALID,23.83,VALID,167.0,VALID,0.232,
2011-08-28, 01:21:04,VALID,1009.406,VALID,0.0,VALID,104.0,VALID,0.0,VALID,23.811,VALID,167.0,VALID,0.157,
2011-08-28, 01:22:04,VALID,1009.403,VALID,0.0,VALID,104.0,VALID,0.0,VALID,23.83,VALID,167.0,VALID,0.223,
2011-08-28, 01:23:04,VALID,1009.381,VALID,0.0,VALID,104.0,VALID,0.0,VALID,23.811,VALID,167.0,VALID,0.344,
2011-08-28, 01:24:04,VALID,1009.39,VALID,0.0,VALID,104.0,VALID,0.0,VALID,23.811,VALID,167.0,VALID,0.316,
2011-08-28, 01:25:04,VALID,1009.379,VALID,0.0,VALID,104.0,VALID,0.0,VALID,23.811,VALID,167.0,VALID,0.385,
2011-08-28, 01:26:04,VALID,1009.374,VALID,0.0,VALID,104.0,VALID,0.0,VALID,23.811,VALID,167.0,VALID,0.266,
2011-08-28, 01:27:04,VALID,1009.369,VALID,0.0,VALID,104.0,VALID,0.0,VALID,23.791,VALID,167.0,VALID,0.306,
2011-08-28, 01:28:04,VALID,1009.335,VALID,0.0,VALID,104.0,VALID,0.0,VALID,23.772,VALID,167.0,VALID,0.426,
2011-08-28, 01:29:04,VALID,1009.334,VALID,0.0,VALID,104.0,VALID,0.0,VALID,23.752,VALID,89.0,VALID,0.382,
2011-08-28, 01:30:04,VALID,1009.326,VALID,0.0,VALID,104.0,VALID,0.0,VALID,23.733,VALID,89.0,VALID,0.315,
2011-08-28, 01:31:04,VALID,1009.329,VALID,0.0,VALID,104.0,VALID,0.0,VALID,23.673,VALID,89.0,VALID,0.162,
2011-08-28, 01:32:04,VALID,1009.346,VALID,0.0,VALID,104.0,VALID,0.0,VALID,23.634,VALID,89.0,VALID,0.006,
2011-08-28, 01:33:04,VALID,1009.333,VALID,0.0,VALID,104.0,VALID,0.0,VALID,23.634,VALID,89.0,VALID,0.002,
2011-08-28, 01:34:04,VALID,1009.313,VALID,0.0,VALID,104.0,VALID,0.0,VALID,23.675,VALID,89.0,VALID,0.337,
2011-08-28, 01:35:04,VALID,1009.319,VALID,0.0,VALID,104.0,VALID,0.106,VALID,23.653,VALID,89.0,VALID,0.342,
2011-08-28, 01:36:04,VALID,1009.309,VALID,0.0,VALID,104.0,VALID,0.106,VALID,23.653,VALID,89.0,VALID,0.268,
2011-08-28, 01:37:04,VALID,1009.281,VALID,0.0,VALID,104.0,VALID,0.0,VALID,23.655,VALID,89.0,VALID,0.129,
2011-08-28, 01:38:04,VALID,1009.265,VALID,0.0,VALID,104.0,VALID,0.0,VALID,23.636,VALID,89.0,VALID,0.002,
2011-08-28, 01:39:04,VALID,1009.263,VALID,0.0,VALID,104.0,VALID,0.106,VALID,23.614,VALID,89.0,VALID,0.249,
2011-08-28, 01:40:04,VALID,1009.252,VALID,0.0,VALID,104.0,VALID,0.0,VALID,23.595,VALID,89.0,VALID,0.193,
2011-08-28, 01:41:04,VALID,1009.254,VALID,0.0,VALID,104.0,VALID,0.106,VALID,23.575,VALID,89.0,VALID,0.243,
2011-08-28, 01:42:04,VALID,1009.247,VALID,0.0,VALID,104.0,VALID,0.106,VALID,23.575,VALID,89.0,VALID,0.307,
2011-08-28, 01:43:04,VALID,1009.253,VALID,0.0,VALID,104.0,VALID,0.106,VALID,23.636,VALID,89.0,VALID,0.43,
2011-08-28, 01:44:04,VALID,1009.237,VALID,0.0,VALID,104.0,VALID,0.0,VALID,23.616,VALID,89.0,VALID,0.395,
2011-08-28, 01:45:04,VALID,1009.219,VALID,0.0,VALID,104.0,VALID,0.106,VALID,23.595,VALID,89.0,VALID,0.301,
2011-08-28, 01:46:04,VALID,1009.218,VALID,0.0,VALID,104.0,VALID,0.106,VALID,23.595,VALID,89.0,VALID,0.293,
2011-08-28, 01:47:04,VALID,1009.213,VALID,0.0,VALID,104.0,VALID,0.106,VALID,23.595,VALID,89.0,VALID,0.352,
2011-08-28, 01:48:04,VALID,1009.188,VALID,0.0,VALID,104.0,VALID,0.106,VALID,23.556,VALID,89.0,VALID,0.36,
2011-08-28, 01:49:04,VALID,1009.2,VALID,0.0,VALID,104.0,VALID,0.106,VALID,23.556,VALID,89.0,VALID,0.204,
2011-08-28, 01:50:04,VALID,1009.183,VALID,0.0,VALID,104.0,VALID,0.0,VALID,23.556,VALID,89.0,VALID,0.0,
2011-08-28, 01:51:04,VALID,1009.156,VALID,0.0,VALID,104.0,VALID,0.106,VALID,23.536,VALID,89.0,VALID,0.048,
2011-08-28, 01:52:04,VALID,1009.151,VALID,0.0,VALID,104.0,VALID,0.106,VALID,23.538,VALID,89.0,VALID,0.307,
2011-08-28, 01:53:04,VALID,1009.154,VALID,0.0,VALID,104.0,VALID,0.106,VALID,23.519,VALID,89.0,VALID,0.396,
2011-08-28, 01:54:04,VALID,1009.141,VALID,0.0,VALID,104.0,VALID,0.0,VALID,23.499,VALID,89.0,VALID,0.295,
2011-08-28, 01:55:04,VALID,1009.129,VALID,0.0,VALID,104.0,VALID,0.106,VALID,23.458,VALID,89.0,VALID,0.159,
2011-08-28, 01:56:04,VALID,1009.149,VALID,0.0,VALID,104.0,VALID,0.106,VALID,23.441,VALID,89.0,VALID,0.168,
2011-08-28, 01:57:04,VALID,1009.11,VALID,0.0,VALID,104.0,VALID,0.106,VALID,23.419,VALID,89.0,VALID,0.213,
2011-08-28, 01:58:04,VALID,1009.07,VALID,0.0,VALID,104.0,VALID,0.106,VALID,23.439,VALID,89.0,VALID,0.304,
2011-08-28, 01:59:04,VALID,1009.076,VALID,0.0,VALID,104.0,VALID,0.106,VALID,23.419,VALID,89.0,VALID,0.145,
2011-08-28, 02:00:04,VALID,1009.043,VALID,0.0,VALID,104.0,VALID,0.0,VALID,23.421,VALID,89.0,VALID,0.173,
2011-08-28, 02:01:04,VALID,1009.041,VALID,0.0,VALID,104.0,VALID,0.106,VALID,23.421,VALID,89.0,VALID,0.171,
2011-08-28, 02:02:04,VALID,1009.044,VALID,0.0,VALID,104.0,VALID,0.106,VALID,23.4,VALID,89.0,VALID,0.121,
2011-08-28, 02:03:04,VALID,1009.028,VALID,0.0,VALID,104.0,VALID,0.0,VALID,23.382,VALID,89.0,VALID,0.0,
2011-08-28, 02:04:04,VALID,1009.025,VALID,0.0,VALID,104.0,VALID,0.0,VALID,23.342,VALID,89.0,VALID,0.214,
2011-08-28, 02:05:04,VALID,1009.026,VALID,0.0,VALID,104.0,VALID,0.106,VALID,23.363,VALID,89.0,VALID,0.147,
2011-08-28, 02:06:04,VALID,1009.026,VALID,0.0,VALID,104.0,VALID,0.106,VALID,23.363,VALID,89.0,VALID,0.039,
2011-08-28, 02:07:04,VALID,1009.052,VALID,0.0,VALID,104.0,VALID,0.106,VALID,23.342,VALID,89.0,VALID,0.183,
2011-08-28, 02:08:04,VALID,1009.015,VALID,0.0,VALID,104.0,VALID,0.0,VALID,23.303,VALID,89.0,VALID,0.209,
2011-08-28, 02:09:04,VALID,1009.056,VALID,0.0,VALID,104.0,VALID,0.0,VALID,23.304,VALID,89.0,VALID,0.166,
2011-08-28, 02:10:04,VALID,1009.02,VALID,0.0,VALID,104.0,VALID,0.106,VALID,23.283,VALID,89.0,VALID,0.366,
2011-08-28, 02:11:04,VALID,1009.011,VALID,0.0,VALID,104.0,VALID,0.106,VALID,23.283,VALID,89.0,VALID,0.365,
2011-08-28, 02:12:04,VALID,1009.008,VALID,0.0,VALID,104.0,VALID,0.0,VALID,23.285,VALID,89.0,VALID,0.147,
2011-08-28, 02:13:04,VALID,1008.984,VALID,0.0,VALID,104.0,VALID,0.106,VALID,23.244,VALID,89.0,VALID,0.096,
2011-08-28, 02:14:04,VALID,1008.978,VALID,0.0,VALID,104.0,VALID,0.106,VALID,23.244,VALID,89.0,VALID,0.131,
2011-08-28, 02:15:04,VALID,1008.985,VALID,0.0,VALID,104.0,VALID,0.0,VALID,23.265,VALID,89.0,VALID,0.17,
2011-08-28, 02:16:04,VALID,1008.964,VALID,0.0,VALID,104.0,VALID,0.106,VALID,23.265,VALID,89.0,VALID,0.293,
2011-08-28, 02:17:04,VALID,1008.984,VALID,0.0,VALID,104.0,VALID,0.106,VALID,23.225,VALID,89.0,VALID,0.271,
2011-08-28, 02:18:04,VALID,1008.986,VALID,0.0,VALID,104.0,VALID,0.106,VALID,23.226,VALID,89.0,VALID,0.147,
2011-08-28, 02:19:04,VALID,1009.035,VALID,0.0,VALID,104.0,VALID,0.106,VALID,23.226,VALID,89.0,VALID,0.0,
2011-08-28, 02:20:04,VALID,1009.019,VALID,0.0,VALID,104.0,VALID,0.0,VALID,23.186,VALID,89.0,VALID,0.286,
2011-08-28, 02:21:04,VALID,1009.045,VALID,0.0,VALID,104.0,VALID,0.106,VALID,23.207,VALID,89.0,VALID,0.209,
2011-08-28, 02:22:04,VALID,1009.029,VALID,0.0,VALID,104.0,VALID,0.106,VALID,23.207,VALID,89.0,VALID,0.246,
2011-08-28, 02:23:04,VALID,1008.995,VALID,0.0,VALID,104.0,VALID,0.0,VALID,23.186,VALID,89.0,VALID,0.304,
2011-08-28, 02:24:04,VALID,1009.015,VALID,0.0,VALID,104.0,VALID,0.106,VALID,23.226,VALID,89.0,VALID,0.236,
2011-08-28, 02:25:04,VALID,1008.996,VALID,0.0,VALID,104.0,VALID,0.106,VALID,23.205,VALID,89.0,VALID,0.286,
2011-08-28, 02:26:04,VALID,1009.031,VALID,0.0,VALID,104.0,VALID,0.0,VALID,23.166,VALID,89.0,VALID,0.029,
2011-08-28, 02:27:04,VALID,1008.994,VALID,0.0,VALID,104.0,VALID,0.0,VALID,23.147,VALID,89.0,VALID,0.0,
2011-08-28, 02:28:04,VALID,1009.007,VALID,0.0,VALID,104.0,VALID,0.106,VALID,23.129,VALID,89.0,VALID,0.19,
2011-08-28, 02:29:04,VALID,1008.991,VALID,0.0,VALID,104.0,VALID,0.106,VALID,23.108,VALID,89.0,VALID,0.344,
2011-08-28, 02:30:04,VALID,1008.985,VALID,0.0,VALID,104.0,VALID,0.0,VALID,23.148,VALID,89.0,VALID,0.243,
2011-08-28, 02:31:04,VALID,1008.984,VALID,0.0,VALID,104.0,VALID,0.106,VALID,23.088,VALID,89.0,VALID,0.248,
2011-08-28, 02:32:04,VALID,1008.957,VALID,0.0,VALID,104.0,VALID,0.0,VALID,23.129,VALID,89.0,VALID,0.361,
2011-08-28, 02:33:04,VALID,1008.943,VALID,0.0,VALID,104.0,VALID,0.0,VALID,23.109,VALID,89.0,VALID,0.0,
2011-08-28, 02:34:04,VALID,1008.922,VALID,0.0,VALID,104.0,VALID,0.0,VALID,23.109,VALID,89.0,VALID,0.0,
2011-08-28, 02:35:04,VALID,1008.927,VALID,0.0,VALID,104.0,VALID,0.0,VALID,23.069,VALID,89.0,VALID,0.0,
2011-08-28, 02:36:04,VALID,1008.949,VALID,0.0,VALID,104.0,VALID,0.0,VALID,23.109,VALID,89.0,VALID,0.333,
2011-08-28, 02:37:04,VALID,1008.925,VALID,0.0,VALID,104.0,VALID,0.0,VALID,23.129,VALID,89.0,VALID,0.193,
2011-08-28, 02:38:04,VALID,1008.919,VALID,0.0,VALID,104.0,VALID,0.0,VALID,23.127,VALID,89.0,VALID,0.298,
2011-08-28, 02:39:04,VALID,1008.902,VALID,0.0,VALID,104.0,VALID,0.0,VALID,23.129,VALID,89.0,VALID,0.264,
2011-08-28, 02:40:04,VALID,1008.909,VALID,0.0,VALID,104.0,VALID,0.0,VALID,23.129,VALID,89.0,VALID,0.0,
2011-08-28, 02:41:04,VALID,1008.896,VALID,0.0,VALID,104.0,VALID,0.0,VALID,23.129,VALID,89.0,VALID,0.0,
2011-08-28, 02:42:04,VALID,1008.894,VALID,0.0,VALID,104.0,VALID,0.0,VALID,23.109,VALID,89.0,VALID,0.055,
2011-08-28, 02:43:04,VALID,1008.886,VALID,0.0,VALID,104.0,VALID,0.0,VALID,23.129,VALID,89.0,VALID,0.17,
2011-08-28, 02:44:04,VALID,1008.869,VALID,0.0,VALID,104.0,VALID,0.106,VALID,23.129,VALID,89.0,VALID,0.019,
2011-08-28, 02:45:04,VALID,1008.857,VALID,0.0,VALID,104.0,VALID,0.106,VALID,23.109,VALID,89.0,VALID,0.0,
2011-08-28, 02:46:04,VALID,1008.869,VALID,0.0,VALID,104.0,VALID,0.106,VALID,23.049,VALID,89.0,VALID,0.0,
2011-08-28, 02:47:04,VALID,1008.878,VALID,0.0,VALID,104.0,VALID,0.106,VALID,23.051,VALID,89.0,VALID,0.0,
2011-08-28, 02:48:04,VALID,1008.888,VALID,0.0,VALID,104.0,VALID,0.106,VALID,23.051,VALID,89.0,VALID,0.0,
2011-08-28, 02:49:04,VALID,1008.896,VALID,0.0,VALID,104.0,VALID,0.0,VALID,23.03,VALID,89.0,VALID,0.0,
2011-08-28, 02:50:04,VALID,1008.897,VALID,0.0,VALID,104.0,VALID,0.0,VALID,23.049,VALID,89.0,VALID,0.153,
2011-08-28, 02:51:04,VALID,1008.906,VALID,0.0,VALID,104.0,VALID,0.0,VALID,23.049,VALID,89.0,VALID,0.173,
2011-08-28, 02:52:04,VALID,1008.916,VALID,0.0,VALID,104.0,VALID,0.0,VALID,23.071,VALID,89.0,VALID,0.249,
2011-08-28, 02:53:04,VALID,1008.883,VALID,0.0,VALID,104.0,VALID,0.0,VALID,23.051,VALID,89.0,VALID,0.189,
2011-08-28, 02:54:04,VALID,1008.907,VALID,0.0,VALID,104.0,VALID,0.106,VALID,23.03,VALID,89.0,VALID,0.191,
2011-08-28, 02:55:04,VALID,1008.917,VALID,0.0,VALID,104.0,VALID,0.0,VALID,23.032,VALID,89.0,VALID,0.161,
2011-08-28, 02:56:04,VALID,1008.94,VALID,0.0,VALID,104.0,VALID,0.0,VALID,23.01,VALID,89.0,VALID,0.157,
2011-08-28, 02:57:04,VALID,1008.944,VALID,0.0,VALID,104.0,VALID,0.0,VALID,23.012,VALID,89.0,VALID,0.0,
2011-08-28, 02:58:04,VALID,1008.916,VALID,0.0,VALID,104.0,VALID,0.0,VALID,22.973,VALID,89.0,VALID,0.059,
2011-08-28, 02:59:04,VALID,1008.96,VALID,0.0,VALID,104.0,VALID,0.106,VALID,22.952,VALID,89.0,VALID,0.147,
2011-08-28, 03:00:04,VALID,1008.97,VALID,0.0,VALID,104.0,VALID,0.0,VALID,22.954,VALID,89.0,VALID,0.355,
2011-08-28, 03:01:04,VALID,1008.975,VALID,0.0,VALID,104.0,VALID,0.106,VALID,22.952,VALID,89.0,VALID,0.368,
2011-08-28, 03:02:04,VALID,1008.941,VALID,0.0,VALID,104.0,VALID,0.0,VALID,22.954,VALID,89.0,VALID,0.378,
2011-08-28, 03:03:04,VALID,1008.982,VALID,0.0,VALID,104.0,VALID,0.0,VALID,22.954,VALID,89.0,VALID,0.284,
2011-08-28, 03:04:04,VALID,1008.963,VALID,0.0,VALID,104.0,VALID,0.0,VALID,22.934,VALID,89.0,VALID,0.459,
2011-08-28, 03:05:04,VALID,1008.959,VALID,0.0,VALID,104.0,VALID,0.106,VALID,22.915,VALID,89.0,VALID,0.574,
2011-08-28, 03:06:04,VALID,1008.965,VALID,0.0,VALID,104.0,VALID,0.106,VALID,22.893,VALID,89.0,VALID,0.501,
2011-08-28, 03:07:04,VALID,1008.953,VALID,0.0,VALID,104.0,VALID,0.106,VALID,22.895,VALID,89.0,VALID,0.463,
2011-08-28, 03:08:04,VALID,1008.97,VALID,0.0,VALID,104.0,VALID,0.106,VALID,22.915,VALID,89.0,VALID,0.594,
2011-08-28, 03:09:04,VALID,1008.956,VALID,0.0,VALID,104.0,VALID,0.106,VALID,22.934,VALID,89.0,VALID,0.439,
2011-08-28, 03:10:04,VALID,1008.954,VALID,0.0,VALID,104.0,VALID,0.0,VALID,22.954,VALID,89.0,VALID,0.472,
2011-08-28, 03:11:04,VALID,1008.944,VALID,0.0,VALID,104.0,VALID,0.0,VALID,22.973,VALID,89.0,VALID,0.454,
2011-08-28, 03:12:04,VALID,1008.922,VALID,0.0,VALID,104.0,VALID,0.106,VALID,22.993,VALID,89.0,VALID,0.374,
2011-08-28, 03:13:04,VALID,1008.919,VALID,0.0,VALID,104.0,VALID,0.0,VALID,22.993,VALID,89.0,VALID,0.224,
2011-08-28, 03:14:04,VALID,1008.93,VALID,0.0,VALID,104.0,VALID,0.0,VALID,23.012,VALID,89.0,VALID,0.231,
2011-08-28, 03:15:04,VALID,1008.924,VALID,0.0,VALID,104.0,VALID,0.106,VALID,22.971,VALID,89.0,VALID,0.002,
2011-08-28, 03:16:04,VALID,1008.921,VALID,0.0,VALID,104.0,VALID,0.0,VALID,22.973,VALID,89.0,VALID,0.171,
2011-08-28, 03:17:04,VALID,1008.898,VALID,0.0,VALID,104.0,VALID,0.106,VALID,22.954,VALID,89.0,VALID,0.252,
2011-08-28, 03:18:04,VALID,1008.892,VALID,0.0,VALID,104.0,VALID,0.0,VALID,22.934,VALID,89.0,VALID,0.249,
2011-08-28, 03:19:04,VALID,1008.895,VALID,0.0,VALID,104.0,VALID,0.106,VALID,22.934,VALID,89.0,VALID,0.267,
2011-08-28, 03:20:04,VALID,1008.897,VALID,0.0,VALID,104.0,VALID,0.0,VALID,22.874,VALID,89.0,VALID,0.127,
2011-08-28, 03:21:04,VALID,1008.879,VALID,0.0,VALID,104.0,VALID,0.0,VALID,22.895,VALID,89.0,VALID,0.009,
2011-08-28, 03:22:04,VALID,1008.878,VALID,0.0,VALID,104.0,VALID,0.106,VALID,22.876,VALID,89.0,VALID,0.33,
2011-08-28, 03:23:04,VALID,1008.885,VALID,0.0,VALID,104.0,VALID,0.106,VALID,22.895,VALID,89.0,VALID,0.201,
2011-08-28, 03:24:04,VALID,1008.873,VALID,0.0,VALID,104.0,VALID,0.106,VALID,22.895,VALID,89.0,VALID,0.363,
2011-08-28, 03:25:04,VALID,1008.855,VALID,0.0,VALID,104.0,VALID,0.106,VALID,22.876,VALID,89.0,VALID,0.376,
2011-08-28, 03:26:04,VALID,1008.822,VALID,0.0,VALID,104.0,VALID,0.212,VALID,22.876,VALID,89.0,VALID,0.504,
2011-08-28, 03:27:04,VALID,1008.841,VALID,0.0,VALID,104.0,VALID,0.106,VALID,22.855,VALID,77.0,VALID,0.542,
2011-08-28, 03:28:04,VALID,1008.83,VALID,0.0,VALID,104.0,VALID,0.106,VALID,22.856,VALID,76.0,VALID,0.168,
2011-08-28, 03:29:04,VALID,1008.816,VALID,0.0,VALID,104.0,VALID,0.106,VALID,22.856,VALID,76.0,VALID,0.262,
2011-08-28, 03:30:04,VALID,1008.837,VALID,0.0,VALID,104.0,VALID,0.106,VALID,22.835,VALID,77.0,VALID,0.482,
2011-08-28, 03:31:04,VALID,1008.839,VALID,0.0,VALID,104.0,VALID,0.212,VALID,22.835,VALID,77.0,VALID,0.836,
2011-08-28, 03:32:04,VALID,1008.86,VALID,0.0,VALID,104.0,VALID,0.106,VALID,22.876,VALID,76.0,VALID,0.548,
2011-08-28, 03:33:04,VALID,1008.861,VALID,0.0,VALID,104.0,VALID,0.106,VALID,22.876,VALID,77.0,VALID,0.342,
2011-08-28, 03:34:04,VALID,1008.9,VALID,0.0,VALID,104.0,VALID,0.106,VALID,22.856,VALID,76.0,VALID,0.46,
2011-08-28, 03:35:04,VALID,1008.896,VALID,0.0,VALID,104.0,VALID,0.106,VALID,22.876,VALID,73.0,VALID,0.672,
2011-08-28, 03:36:04,VALID,1008.912,VALID,0.0,VALID,104.0,VALID,0.106,VALID,22.915,VALID,63.0,VALID,0.519,
2011-08-28, 03:37:04,VALID,1008.929,VALID,0.0,VALID,104.0,VALID,0.0,VALID,22.915,VALID,62.0,VALID,0.215,
2011-08-28, 03:38:04,VALID,1008.925,VALID,0.0,VALID,104.0,VALID,0.106,VALID,22.915,VALID,62.0,VALID,0.368,
2011-08-28, 03:39:04,VALID,1008.924,VALID,0.0,VALID,104.0,VALID,0.106,VALID,22.895,VALID,63.0,VALID,0.221,
2011-08-28, 03:40:04,VALID,1008.917,VALID,0.0,VALID,104.0,VALID,0.106,VALID,22.855,VALID,63.0,VALID,0.14,
2011-08-28, 03:41:04,VALID,1008.901,VALID,0.0,VALID,104.0,VALID,0.106,VALID,22.856,VALID,63.0,VALID,0.0,